When you browse on this site, cookies collect data to enhance your experience and personalize the content and advertising you see.
Visit our Privacy Policy to learn more. By continuing to use the site, you agree to this use of cookies and data.
  • In Deutschland
  • Länderverzeichnis
  • Für 7 Tage
  • Wassertemperatur
  • Satellitenkarten
  • Wetterkarte
  • Widgets
  • user-avatar
    Anmelden

    Stündliche Wetter Muiinga

    Heute, 22 Januar, Dienstag

    Zeit Temperatur Niederschläge Wind Luftdruck Luftfeuchtigkeit
    00:00 +15°C° 0 mm 0 m/S 628 mmHg 88%
    01:00 +15°C° 0 mm 0 m/S 628 mmHg 89%
    02:00 +14°C° 0 mm 0 m/S 628 mmHg 90%
    03:00 +14°C° 0 mm 0 m/S 628 mmHg 91%
    04:00 +15°C° 0 mm 1 m/S 627 mmHg 91%
    05:00 +15°C° 0 mm 1 m/S 627 mmHg 91%
    06:00 +16°C° 0 mm 1 m/S 628 mmHg 86%
    07:00 +17°C° 0 mm 0 m/S 628 mmHg 81%
    08:00 +21°C° 0 mm 1 m/S 629 mmHg 74%
    09:00 +23°C° 0 mm 1 m/S 630 mmHg 66%
    10:00 +25°C° 0 mm 1 m/S 630 mmHg 58%
    11:00 +27°C° 0 mm 1 m/S 630 mmHg 49%
    12:00 +28°C° 0 mm 2 m/S 630 mmHg 48%
    13:00 +28°C° 0 mm 2 m/S 629 mmHg 47%
    14:00 +28°C° 0 mm 3 m/S 629 mmHg 46%
    15:00 +28°C° 0 mm 2 m/S 628 mmHg 50%
    16:00 +27°C° 0 mm 2 m/S 628 mmHg 55%
    17:00 +27°C° 0 mm 2 m/S 628 mmHg 59%
    18:00 +25°C° 0.5 mm 1 m/S 628 mmHg 67%
    19:00 +23°C° 0.5 mm 1 m/S 628 mmHg 75%
    20:00 +21°C° 0.5 mm 1 m/S 628 mmHg 83%
    21:00 +20°C° 0.8 mm 1 m/S 628 mmHg 83%
    22:00 +20°C° 0.8 mm 1 m/S 628 mmHg 84%
    23:00 +20°C° 0.8 mm 1 m/S 629 mmHg 85%

    Morgen, 23 Januar, Mittwoch

    Zeit Temperatur Niederschläge Wind Luftdruck Luftfeuchtigkeit
    00:00 +19°C° 0.1 mm 1 m/S 628 mmHg 86%
    01:00 +19°C° 0.1 mm 1 m/S 628 mmHg 87%
    02:00 +18°C° 0.1 mm 1 m/S 628 mmHg 88%
    03:00 +18°C° 0.1 mm 1 m/S 627 mmHg 89%
    04:00 +16°C° 0.1 mm 1 m/S 627 mmHg 90%
    05:00 +16°C° 0.1 mm 1 m/S 627 mmHg 91%
    06:00 +18°C° 0 mm 1 m/S 628 mmHg 87%
    07:00 +19°C° 0 mm 1 m/S 628 mmHg 83%
    08:00 +21°C° 0 mm 1 m/S 629 mmHg 79%
    09:00 +23°C° 0.5 mm 1 m/S 629 mmHg 73%
    10:00 +25°C° 0.5 mm 1 m/S 630 mmHg 67%
    11:00 +27°C° 0.5 mm 1 m/S 630 mmHg 61%
    12:00 +27°C° 1 mm 1 m/S 630 mmHg 62%
    13:00 +26°C° 1 mm 2 m/S 629 mmHg 63%
    14:00 +26°C° 1 mm 3 m/S 629 mmHg 64%
    15:00 +26°C° 1.7 mm 2 m/S 628 mmHg 69%
    16:00 +25°C° 1.7 mm 2 m/S 627 mmHg 74%
    17:00 +24°C° 1.7 mm 1 m/S 627 mmHg 80%
    18:00 +22°C° 0.6 mm 1 m/S 627 mmHg 82%
    19:00 +21°C° 0.6 mm 1 m/S 627 mmHg 85%
    20:00 +20°C° 0.6 mm 1 m/S 627 mmHg 88%
    21:00 +19°C° 0.6 mm 1 m/S 628 mmHg 89%
    22:00 +19°C° 0.6 mm 1 m/S 628 mmHg 89%
    23:00 +19°C° 0.6 mm 1 m/S 628 mmHg 90%

    übermorgen, 24 Januar, Donnerstag

    Zeit Temperatur Niederschläge Wind Luftdruck Luftfeuchtigkeit
    00:00 +19°C° 0.7 mm 1 m/S 628 mmHg 91%
    01:00 +18°C° 0.7 mm 1 m/S 628 mmHg 93%
    02:00 +18°C° 0.7 mm 1 m/S 627 mmHg 94%
    03:00 +18°C° 0.1 mm 1 m/S 627 mmHg 95%
    04:00 +16°C° 0.1 mm 1 m/S 627 mmHg 95%
    05:00 +16°C° 0.1 mm 1 m/S 627 mmHg 95%
    06:00 +18°C° 0 mm 1 m/S 628 mmHg 93%
    07:00 +19°C° 0 mm 1 m/S 629 mmHg 90%
    08:00 +20°C° 0 mm 1 m/S 630 mmHg 88%
    09:00 +21°C° 1 mm 1 m/S 630 mmHg 82%
    10:00 +23°C° 1 mm 1 m/S 630 mmHg 77%
    11:00 +25°C° 1 mm 1 m/S 631 mmHg 71%
    12:00 +25°C° 0.6 mm 1 m/S 630 mmHg 68%
    13:00 +26°C° 0.6 mm 2 m/S 629 mmHg 64%
    14:00 +26°C° 0.6 mm 2 m/S 628 mmHg 61%
    15:00 +25°C° 1.3 mm 2 m/S 628 mmHg 68%
    16:00 +24°C° 1.3 mm 2 m/S 627 mmHg 74%
    17:00 +23°C° 1.3 mm 1 m/S 627 mmHg 81%
    18:00 +22°C° 0.4 mm 1 m/S 627 mmHg 84%
    19:00 +20°C° 0.4 mm 1 m/S 627 mmHg 86%
    20:00 +19°C° 0.4 mm 1 m/S 628 mmHg 89%
    21:00 +19°C° 0 mm 1 m/S 628 mmHg 90%
    22:00 +18°C° 0 mm 1 m/S 628 mmHg 91%
    23:00 +18°C° 0 mm 1 m/S 628 mmHg 92%

    25 Januar, Freitag

    Zeit Temperatur Niederschläge Wind Luftdruck Luftfeuchtigkeit
    00:00 +18°C° 0.1 mm 1 m/S 628 mmHg 92%
    01:00 +18°C° 0.1 mm 1 m/S 628 mmHg 93%
    02:00 +16°C° 0.1 mm 1 m/S 627 mmHg 93%
    03:00 +16°C° 0.3 mm 1 m/S 627 mmHg 94%
    04:00 +16°C° 0.3 mm 1 m/S 627 mmHg 95%
    05:00 +15°C° 0.3 mm 1 m/S 627 mmHg 95%
    06:00 +18°C° 0 mm 1 m/S 628 mmHg 92%
    07:00 +19°C° 0 mm 1 m/S 629 mmHg 89%
    08:00 +20°C° 0 mm 1 m/S 630 mmHg 87%
    09:00 +21°C° 0.9 mm 1 m/S 630 mmHg 81%
    10:00 +23°C° 0.9 mm 1 m/S 631 mmHg 75%
    11:00 +24°C° 0.9 mm 2 m/S 631 mmHg 69%
    12:00 +24°C° 1.4 mm 2 m/S 630 mmHg 69%
    13:00 +25°C° 1.4 mm 2 m/S 630 mmHg 70%
    14:00 +25°C° 1.4 mm 1 m/S 629 mmHg 70%
    15:00 +24°C° 2.1 mm 1 m/S 629 mmHg 75%
    16:00 +23°C° 2.1 mm 1 m/S 628 mmHg 79%
    17:00 +22°C° 2.1 mm 1 m/S 628 mmHg 84%
    18:00 +19°C° 0.2 mm 0 m/S 628 mmHg 85%
    19:00 +17°C° 0.2 mm 0 m/S 628 mmHg 87%
    20:00 +16°C° 0.2 mm 0 m/S 628 mmHg 88%
    21:00 +16°C° 0 mm 0 m/S 628 mmHg 89%
    22:00 +15°C° 0 mm 0 m/S 628 mmHg 89%
    23:00 +15°C° 0 mm 0 m/S 628 mmHg 90%

    26 Januar, Samstag

    Zeit Temperatur Niederschläge Wind Luftdruck Luftfeuchtigkeit
    00:00 +15°C° 0 mm 1 m/S 628 mmHg 91%
    01:00 +15°C° 0 mm 1 m/S 628 mmHg 92%
    02:00 +15°C° 0 mm 1 m/S 627 mmHg 93%
    03:00 +15°C° 0 mm 1 m/S 627 mmHg 93%
    04:00 +14°C° 0 mm 1 m/S 627 mmHg 94%
    05:00 +14°C° 0 mm 1 m/S 627 mmHg 94%
    06:00 +16°C° 0 mm 1 m/S 628 mmHg 90%
    07:00 +18°C° 0 mm 1 m/S 629 mmHg 86%
    08:00 +20°C° 0 mm 1 m/S 630 mmHg 82%
    09:00 +22°C° 0 mm 1 m/S 630 mmHg 74%
    10:00 +24°C° 0 mm 1 m/S 631 mmHg 66%
    11:00 +27°C° 0 mm 1 m/S 631 mmHg 58%
    12:00 +27°C° 0.8 mm 1 m/S 630 mmHg 59%
    13:00 +26°C° 0.8 mm 2 m/S 629 mmHg 61%
    14:00 +26°C° 0.8 mm 2 m/S 629 mmHg 63%
    15:00 +26°C° 0.4 mm 1 m/S 628 mmHg 64%
    16:00 +26°C° 0.4 mm 1 m/S 628 mmHg 66%
    17:00 +25°C° 0.4 mm 1 m/S 628 mmHg 67%
    18:00 +23°C° 0.1 mm 1 m/S 628 mmHg 73%
    19:00 +21°C° 0.1 mm 1 m/S 628 mmHg 78%
    20:00 +19°C° 0.1 mm 1 m/S 628 mmHg 84%
    21:00 +19°C° 0 mm 1 m/S 628 mmHg 87%
    22:00 +18°C° 0 mm 1 m/S 628 mmHg 89%
    23:00 +18°C° 0 mm 1 m/S 628 mmHg 92%

    27 Januar, Sonntag

    Zeit Temperatur Niederschläge Wind Luftdruck Luftfeuchtigkeit
    00:00 +16°C° 0 mm 1 m/S 628 mmHg 93%
    01:00 +16°C° 0 mm 1 m/S 627 mmHg 94%
    02:00 +16°C° 0 mm 1 m/S 627 mmHg 95%
    03:00 +15°C° 0 mm 1 m/S 627 mmHg 95%
    04:00 +15°C° 0 mm 1 m/S 627 mmHg 95%
    05:00 +14°C° 0 mm 0 m/S 627 mmHg 95%
    06:00 +16°C° 0.1 mm 1 m/S 628 mmHg 90%
    07:00 +19°C° 0.1 mm 1 m/S 629 mmHg 85%
    08:00 +21°C° 0.1 mm 1 m/S 629 mmHg 80%
    09:00 +23°C° 0.5 mm 1 m/S 630 mmHg 72%
    10:00 +25°C° 0.5 mm 1 m/S 630 mmHg 64%
    11:00 +27°C° 0.5 mm 2 m/S 630 mmHg 57%
    12:00 +27°C° 0.4 mm 2 m/S 630 mmHg 56%
    13:00 +27°C° 0.4 mm 2 m/S 629 mmHg 54%
    14:00 +28°C° 0.4 mm 2 m/S 628 mmHg 53%
    15:00 +27°C° 0.1 mm 2 m/S 628 mmHg 57%
    16:00 +26°C° 0.1 mm 2 m/S 628 mmHg 62%
    17:00 +26°C° 0.1 mm 2 m/S 628 mmHg 66%
    18:00 +23°C° 0.3 mm 2 m/S 628 mmHg 74%
    19:00 +20°C° 0.3 mm 2 m/S 627 mmHg 81%
    20:00 +19°C° 0.3 mm 1 m/S 627 mmHg 89%
    21:00 +19°C° 0 mm 1 m/S 627 mmHg 89%
    22:00 +18°C° 0 mm 1 m/S 627 mmHg 89%
    23:00 +18°C° 0 mm 1 m/S 627 mmHg 88%
    Mehr zeigen